CAPE
29 24 23 17 11 12 17 25 28 28 10 0 0 0 0 0 0 0 0 0 0 0 0 0 0 0 0 0 0 0 0 0 0 0 0 0 0 0 0 0 0 0 0 1 0 0 0 0 0 0 0 0 0 0
35 14 6 9 4 16 22 21 18 27 16 6 2 0 0 0 0 0 0 0 0 0 0 0 0 0 0 0 0 0 0 0 0 0 0 0 0 0 0 0 0 0 0 0 0 0 0 0 0 0 0 0 0 0
10 8 10 5 14 20 19 24 20 24 17 10 6 4 0 0 0 0 0 0 0 0 0 0 0 0 0 0 0 0 0 0 0 0 0 0 0 0 0 0 0 0 0 0 0 0 0 0 0 0 0 0 0 0
11 7 16 30 27 22 23 23 21 20 14 12 11 9 0 0 0 0 0 0 0 0 0 0 0 0 0 0 0 0 0 0 0 0 0 0 0 0 0 0 0 0 0 0 0 0 0 0 0 0 0 0 0 0
18 14 21 22 19 12 11 15 14 20 22 19 21 15 0 0 0 0 0 0 0 0 0 0 0 0 0 0 0 0 0 0 0 0 0 0 0 0 0 0 0 0 0 0 0 0 0 0 0 0 0 0 0 0
19 20 16 9 3 1 0 0 2 17 27 23 38 10 0 0 0 0 0 0 0 0 0 0 0 0 0 0 0 0 0 0 0 0 0 0 0 0 0 0 0 0 0 0 0 0 0 0 0 0 0 0 0 0
2 5 0 2 1 1 0 0 2 17 36 51 40 6 0 0 0 0 0 0 0 0 0 0 0 0 0 0 0 0 0 0 0 0 0 0 0 0 1 0 0 0 0 0 0 0 0 0 0 0 0 0 0 0
12 1 4 11 6 1 0 0 7 39 38 44 9 1 0 0 0 0 0 0 0 0 0 0 0 0 0 0 0 0 1 0 1 0 1 1 0 4 15 0 0 0 0 1 4 4 5 3 0 0 0 0 0 0
15 15 9 3 10 29 34 22 49 45 36 4 0 0 0 0 0 0 0 0 0 0 0 0 0 0 0 1 0 0 0 0 0 4 16 3 1 4 0 2 3 8 10 21 11 10 1 0 1 6 0 0 0 0
25 19 10 24 27 24 31 39 31 16 0 0 0 0 0 0 0 0 0 0 0 0 0 0 0 0 0 0 1 0 0 0 0 0 0 15 0 0 0 3 2 1 4 8 12 3 7 4 5 3 2 0 0 0
28 23 29 33 24 25 35 26 6 0 0 0 0 9 0 0 0 0 0 0 0 0 0 0 0 0 0 0 0 0 0 1 0 0 0 1 0 6 4 9 2 0 0 0 0 0 0 1 3 4 8 21 12 4
48 48 45 38 31 33 20 2 0 0 0 0 0 1 0 0 0 0 0 0 0 0 0 0 0 0 0 0 0 2 1 1 1 0 2 1 1 1 5 0 0 0 0 0 0 0 0 0 0 0 0 0 1 2
52 46 38 44 57 47 1 0 0 0 0 0 0 0 0 0 0 0 0 2 0 0 0 0 0 0 0 0 0 0 0 0 0 1 0 0 1 0 0 0 0 0 0 0 0 0 0 0 0 0 0 0 0 0
43 48 60 58 22 1 10 10 0 0 0 0 0 0 0 0 0 0 0 0 0 0 0 0 1 0 0 0 0 0 0 0 0 0 0 1 8 2 0 0 0 0 0 0 0 0 0 0 0 0 0 0 0 0
57 57 41 20 20 34 22 0 0 0 0 0 0 0 0 0 0 0 0 0 0 0 0 0 0 0 0 0 0 1 1 0 0 0 4 6 0 0 0 0 0 0 0 0 0 0 0 0 0 0 0 0 0 0
67 44 16 26 2 0 0 0 0 0 0 0 0 0 0 0 0 0 0 0 0 0 0 0 0 0 0 1 0 0 6 0 2 9 13 6 0 0 1 6 0 0 0 0 0 0 0 0 0 0 0 0 0 0
1 9 51 7 0 0 0 0 0 0 0 0 0 0 0 0 0 0 0 0 0 0 0 0 0 0 0 0 2 0 0 2 0 0 2 11 23 13 4 0 0 0 0 0 0 0 0 0 0 0 0 0 0 0
2 40 12 0 0 0 0 0 0 0 0 0 0 0 0 0 0 0 0 0 0 0 0 0 0 0 0 0 0 0 0 0 0 0 0 0 0 0 0 8 3 0 0 0 0 0 0 0 0 0 0 0 0 2
7 0 0 0 0 0 0 0 0 0 0 0 0 0 0 0 0 0 0 0 0 0 0 0 0 0 0 0 10 5 0 0 0 0 0 0 0 0 0 0 0 0 0 0 0 0 0 0 2 6 6 10 12 10
3 0 0 0 0 0 0 0 0 0 0 0 0 0 0 0 0 0 0 0 0 0 0 0 0 0 0 0 0 0 0 0 0 0 0 0 0 0 0 0 0 0 0 0 0 0 0 3 3 5 9 7 10 7
0 0 0 0 0 0 0 0 0 0 0 0 0 0 0 0 0 0 0 0 0 0 0 0 0 0 0 0 0 0 0 0 0 0 0 0 0 0 0 0 0 0 0 0 0 0 1 9 6 9 15 13 15 7
0 0 0 0 0 0 0 0 0 0 0 0 0 0 0 0 0 0 0 0 0 0 0 0 0 0 0 0 0 0 0 0 0 0 0 0 0 0 0 0 0 0 0 0 0 2 4 5 8 12 11 6 2 1
0 0 0 0 0 0 0 0 0 0 0 0 0 0 0 0 0 0 0 0 0 0 0 0 0 0 0 0 0 0 0 0 0 0 0 0 0 0 0 0 0 0 0 0 0 1 4 2 10 5 2 1 0 0
0 0 0 0 0 0 0 0 0 0 0 0 0 0 0 0 0 0 0 0 0 0 0 0 0 0 0 0 0 0 0 0 0 0 0 0 0 0 0 0 0 0 0 0 0 0 1 2 0 1 0 0 0 0
0 0 0 0 0 0 0 0 0 0 0 0 0 0 0 0 0 0 0 0 0 0 0 0 0 0 0 0 0 0 0 0 0 0 0 0 0 0 0 0 0 0 0 0 0 0 1 1 1 0 0 0 0 0
0 0 0 0 0 0 0 0 0 0 0 0 0 0 0 0 0 0 0 0 0 0 0 0 0 0 0 0 0 0 0 0 0 0 0 0 0 0 0 0 0 0 0 0 0 1 1 0 0 0 0 0 0 0
0 0 0 0 0 0 0 0 0 0 0 0 0 0 0 0 0 0 0 0 0 0 0 0 0 0 0 0 0 0 0 0 0 0 0 0 0 0 0 0 0 0 0 0 0 0 0 0 0 0 0 0 0 0
0 0 0 0 0 0 0 0 0 0 0 0 0 0 0 0 0 0 0 0 0 0 0 0 0 0 0 0 0 0 0 0 0 0 0 0 0 0 0 0 0 0 0 0 0 0 0 0 0 0 0 0 0 0
0 0 0 0 0 0 0 0 0 0 0 0 0 0 0 0 0 0 0 0 0 0 0 0 0 0 0 0 0 0 0 0 0 0 0 0 0 0 0 0 0 0 0 0 0 0 0 0 0 0 0 0 0 0
0 0 0 0 0 0 0 0 0 0 0 0 0 0 0 0 0 0 0 0 0 0 0 0 0 0 0 0 0 0 0 0 0 0 1 1 2 0 0 0 0 0 0 0 0 0 0 0 0 0 0 0 0 0
0 0 0 0 0 0 0 0 0 0 0 0 0 0 0 0 0 0 0 0 0 0 0 0 0 0 0 0 0 0 0 0 0 0 0 1 1 0 0 0 0 0 0 0 0 0 0 0 0 0 0 0 0 0
0 0 0 0 0 0 0 0 0 0 0 0 0 0 0 0 0 0 0 0 0 0 0 0 0 0 0 0 0 0 0 0 0 0 0 0 0 0 0 0 0 0 0 0 0 0 0 0 0 0 0 0 0 0
0 0 0 0 0 0 0 0 0 0 0 0 0 0 0 0 0 0 0 0 0 0 0 0 0 0 0 0 0 0 0 0 0 0 0 0 0 0 0 0 0 0 0 0 0 0 0 0 0 0 0 0 0 0
CIN
-0 -0 -0 -1 -2 -3 -1 -0 -0 -1 -6 -0 -0 -0 -0 -0 -0 -0 -0 -0 -0 -0 -0 -0 -0 -0 -0 -0 -0 -0 -0 -0 -0 -0 -0 -0 -0 -0 -0 -0 -0 -0 -0 -0 -0 -0 -0 -0 -0 -0 -0 -0 -0 -0
-0 -0 -4 -4 -7 -2 -1 -0 -3 -4 -5 -8 -4 -0 -0 -0 -0 -0 -0 -0 -0 -0 -0 -0 -0 -0 -0 -0 -0 -0 -0 -0 -0 -0 -0 -0 -0 -0 -0 -0 -0 -0 -0 -0 -0 -0 -0 -0 -0 -0 -0 -0 -0 -0
-2 -2 -4 -7 -3 -1 -3 -3 -6 -5 -5 -8 -8 -7 -0 -0 -0 -0 -0 -0 -0 -0 -0 -0 -0 -0 -0 -0 -0 -0 -0 -0 -0 -0 -0 -0 -0 -0 -0 -0 -0 -0 -0 -0 -0 -0 -0 -0 -0 -0 -0 -0 -0 -0
-4 -3 -2 -1 -2 -3 -4 -5 -7 -7 -6 -6 -5 -4 -0 -0 -0 -0 -0 -0 -0 -0 -0 -0 -0 -0 -0 -0 -0 -0 -0 -0 -0 -0 -0 -0 -0 -0 -0 -0 -0 -0 -0 -0 -0 -0 -0 -0 -0 -0 -0 -0 -0 -0
-0 -1 -0 -1 -2 -6 -7 -7 -7 -6 -6 -5 -2 -2 -0 -0 -0 -0 -0 -0 -0 -0 -0 -0 -0 -0 -0 -0 -0 -0 -0 -0 -0 -0 -0 -0 -0 -0 -0 -0 -0 -0 -0 -0 -0 -0 -0 -0 -0 -0 -0 -0 -0 -0
-0 -0 -1 -2 -6 -12 -0 -0 -13 -4 -3 -3 -0 -5 -0 -0 -0 -0 -0 -0 -0 -0 -0 -0 -0 -0 -0 -0 -0 -0 -0 -0 -0 -0 -0 -0 -0 -0 -0 -0 -0 -0 -0 -0 -0 -0 -0 -0 -0 -0 -0 -0 -0 -0
-5 -4 -0 -2 -4 -6 -8 -2 -11 -5 -2 -0 -0 -4 -0 -0 -0 -0 -0 -0 -0 -0 -0 -0 -0 -0 -0 -0 -0 -0 -0 -0 -0 -0 -0 -0 -0 -0 -0 -0 -0 -0 -0 -0 -0 -0 -0 -0 -0 -0 -0 -0 -0 -0
-0 -0 -0 -0 -0 -1 -0 -0 -4 -0 -2 -0 -8 -6 -0 -0 -0 -0 -0 -0 -0 -0 -0 -0 -0 -0 -0 -0 -0 -0 -0 -0 -0 -0 -0 -2 -0 -4 -0 -0 -0 -0 -0 -0 -0 -0 -0 -0 -0 -0 -0 -0 -0 -0
-0 -0 -0 -2 -3 -0 -0 -0 -0 -0 -1 -10 -0 -0 -0 -0 -0 -0 -0 -0 -0 -0 -0 -0 -0 -0 -0 -0 -0 -0 -0 -0 -0 -3 -0 -0 -0 -0 -0 -0 -0 -0 -0 -0 -1 -6 -0 -0 -0 -0 -0 -0 -0 -0
-0 -0 -3 -0 -0 -0 -0 -0 -1 -9 -0 -0 -0 -0 -0 -0 -0 -0 -0 -0 -0 -0 -0 -0 -0 -0 -0 -0 -0 -0 -0 -0 -0 -0 -0 -2 -0 -0 -0 -2 -11 -12 -8 -5 -0 -0 -0 -0 -0 -0 -0 -0 -0 -0
-0 -0 -0 -0 -0 -0 -0 -1 -7 -0 -0 -0 -0 -0 -0 -0 -0 -0 -0 -0 -0 -0 -0 -0 -0 -0 -0 -0 -0 -0 -0 -0 -0 -0 -0 -0 -0 -0 -6 -5 -12 -0 -0 -0 -0 -0 -0 -0 -0 -0 -0 -0 -0 -0
-0 -0 -0 -0 -0 -0 -0 -7 -0 -0 -0 -0 -0 -2 -0 -0 -0 -0 -0 -0 -0 -0 -0 -0 -0 -0 -0 -0 -0 -0 -0 -0 -0 -0 -0 -0 -0 -2 -9 -6 -0 -0 -0 -0 -0 -0 -0 -0 -0 -0 -0 -0 -0 -0
-0 -0 -0 -0 -0 -0 -10 -0 -0 -0 -0 -0 -0 -0 -0 -0 -0 -0 -0 -0 -0 -0 -0 -0 -0 -0 -0 -0 -0 -0 -0 -0 -0 -0 -0 -0 -0 -1 -0 -0 -0 -0 -0 -0 -0 -0 -0 -0 -0 -0 -0 -0 -0 -0
-0 -0 -0 -0 -0 -9 -11 -15 -0 -0 -0 -0 -0 -0 -0 -0 -0 -0 -0 -0 -0 -0 -0 -0 -0 -0 -0 -0 -0 -0 -0 -0 -0 -0 -0 -0 -4 -6 -0 -0 -0 -0 -0 -0 -0 -0 -0 -0 -0 -0 -0 -0 -0 -0
-0 -0 -0 -0 -0 -2 -3 -0 -0 -0 -0 -0 -0 -0 -0 -0 -0 -0 -0 -0 -0 -0 -0 -0 -0 -0 -0 -0 -0 -0 -0 -0 -0 -0 -0 -0 -0 -0 -0 -0 -0 -0 -0 -0 -0 -0 -0 -0 -0 -0 -0 -0 -0 -0
-0 -0 -0 -0 -2 -0 -0 -0 -0 -0 -0 -0 -0 -0 -0 -0 -0 -0 -0 -0 -0 -0 -0 -0 -0 -0 -0 -0 -0 -0 -2 -0 -0 -0 -0 -0 -0 -0 -9 -14 -0 -0 -0 -0 -0 -0 -0 -0 -0 -0 -0 -0 -0 -0
-4 -2 -0 -6 -0 -0 -0 -0 -0 -0 -0 -0 -0 -0 -0 -0 -0 -0 -0 -0 -0 -0 -0 -0 -0 -0 -0 -0 -2 -0 -0 -0 -0 -0 -9 -10 -4 -11 -25 -8 -0 -0 -0 -0 -0 -0 -0 -0 -0 -0 -0 -0 -0 -0
-0 -1 -5 -0 -0 -0 -0 -0 -0 -0 -0 -0 -0 -0 -0 -0 -0 -0 -0 -0 -0 -0 -0 -0 -0 -0 -0 -0 -0 -0 -0 -0 -0 -0 -0 -0 -0 -0 -0 -21 -28 -0 -0 -0 -0 -0 -0 -0 -0 -0 -0 -0 -0 -0
-0 -0 -0 -0 -0 -0 -0 -0 -0 -0 -0 -0 -0 -0 -0 -0 -0 -0 -0 -0 -0 -0 -0 -0 -0 -0 -0 -0 -29 -10 -0 -0 -0 -0 -0 -0 -0 -0 -0 -0 -0 -0 -0 -0 -0 -0 -0 -0 -0 -0 -0 -0 -0 -0
-0 -0 -0 -0 -0 -0 -0 -0 -0 -0 -0 -0 -0 -0 -0 -0 -0 -0 -0 -0 -0 -0 -0 -0 -0 -0 -0 -0 -0 -0 -0 -0 -0 -0 -0 -0 -0 -0 -0 -0 -0 -0 -0 -0 -0 -0 -0 -0 -0 -0 -0 -0 -0 -0
-0 -0 -0 -0 -0 -0 -0 -0 -0 -0 -0 -0 -0 -0 -0 -0 -0 -0 -0 -0 -0 -0 -0 -0 -0 -0 -0 -0 -0 -0 -0 -0 -0 -0 -0 -0 -0 -0 -0 -0 -0 -0 -0 -0 -0 -0 -0 -0 -0 -0 -0 -0 -0 -0
-0 -0 -0 -0 -0 -0 -0 -0 -0 -0 -0 -0 -0 -0 -0 -0 -0 -0 -0 -0 -0 -0 -0 -0 -0 -0 -0 -0 -0 -0 -0 -0 -0 -0 -0 -0 -0 -0 -7 -0 -0 -0 -0 -0 -0 -0 -0 -0 -0 -0 -0 -0 -0 -0
-0 -0 -0 -0 -0 -0 -0 -0 -0 -0 -0 -0 -0 -0 -0 -0 -0 -0 -0 -0 -0 -0 -0 -0 -0 -0 -0 -0 -0 -0 -0 -0 -0 -0 -0 -0 -0 -0 -0 -0 -0 -0 -0 -0 -0 -0 -0 -0 -0 -0 -0 -0 -0 -0
-0 -0 -0 -0 -0 -0 -0 -0 -0 -0 -0 -0 -0 -0 -0 -0 -0 -0 -0 -0 -0 -0 -0 -0 -0 -0 -0 -0 -0 -0 -0 -0 -0 -0 -0 -0 -0 -0 -0 -0 -0 -0 -0 -0 -0 -0 -0 -0 -0 -0 -0 -0 -0 -0
-0 -0 -0 -0 -0 -0 -0 -0 -0 -0 -0 -0 -0 -0 -0 -0 -0 -0 -0 -0 -0 -0 -0 -0 -0 -0 -0 -0 -0 -0 -0 -0 -0 -0 -0 -0 -0 -0 -0 -0 -0 -0 -0 -0 -0 -0 -0 -0 -0 -0 -0 -0 -0 -0
-0 -0 -0 -0 -0 -0 -0 -0 -0 -0 -0 -0 -0 -0 -0 -0 -0 -0 -0 -0 -0 -0 -0 -0 -0 -0 -0 -0 -0 -0 -0 -0 -0 -0 -0 -0 -0 -0 -0 -0 -0 -0 -0 -0 -0 -0 -0 -0 -0 -0 -0 -0 -0 -0
-0 -0 -0 -0 -0 -0 -0 -0 -0 -0 -0 -0 -0 -0 -0 -0 -0 -0 -0 -0 -0 -0 -0 -0 -0 -0 -0 -0 -0 -0 -0 -0 -0 -0 -0 -0 -0 -0 -0 -0 -0 -0 -0 -0 -0 -0 -0 -0 -0 -0 -0 -0 -0 -0
-0 -0 -0 -0 -0 -0 -0 -0 -0 -0 -0 -0 -0 -0 -0 -0 -0 -0 -0 -0 -0 -0 -0 -0 -0 -0 -0 -0 -0 -0 -0 -0 -0 -0 -0 -0 -0 -0 -0 -0 -0 -0 -0 -0 -0 -0 -0 -0 -0 -0 -0 -0 -0 -0
-0 -0 -0 -0 -0 -0 -0 -0 -0 -0 -0 -0 -0 -0 -0 -0 -0 -0 -0 -0 -0 -0 -0 -0 -0 -0 -0 -0 -0 -0 -0 -0 -0 -0 -0 -0 -0 -0 -0 -0 -0 -0 -0 -0 -0 -0 -0 -0 -0 -0 -0 -0 -0 -0
-0 -0 -0 -0 -0 -0 -0 -0 -0 -0 -0 -0 -0 -0 -0 -0 -0 -0 -0 -0 -0 -0 -0 -0 -0 -0 -0 -0 -0 -0 -0 -0 -0 -0 -0 -0 -0 -0 -0 -0 -0 -0 -0 -0 -0 -0 -0 -0 -0 -0 -0 -0 -0 -0
-0 -0 -0 -0 -0 -0 -0 -0 -0 -0 -0 -0 -0 -0 -0 -0 -0 -0 -0 -0 -0 -0 -0 -0 -0 -0 -0 -0 -0 -0 -0 -0 -0 -0 -0 -0 -0 -0 -0 -0 -0 -0 -0 -0 -0 -0 -0 -0 -0 -0 -0 -0 -0 -0
-0 -0 -0 -0 -0 -0 -0 -0 -0 -0 -0 -0 -0 -0 -0 -0 -0 -0 -0 -0 -0 -0 -0 -0 -0 -0 -0 -0 -0 -0 -0 -0 -0 -0 -0 -0 -0 -0 -0 -0 -0 -0 -0 -0 -0 -0 -0 -0 -0 -0 -0 -0 -0 -0
-0 -0 -0 -0 -0 -0 -0 -0 -0 -0 -0 -0 -0 -0 -0 -0 -0 -0 -0 -0 -0 -0 -0 -0 -0 -0 -0 -0 -0 -0 -0 -0 -0 -0 -0 -0 -0 -0 -0 -0 -0 -0 -0 -0 -0 -0 -0 -0 -0 -0 -0 -0 -0 -0
Wind_Speed
31 30 29 28 26 25 23 23 22 20 19 17 15 13 11 11 8 4 2 2 4 4 1 2 2 4 3 3 6 6 4 1 2 3 3 3 3 3 2 4 6 9 8 5 5 4 10 5 2 7 1 2 4 5
30 29 28 27 26 24 23 22 21 20 19 17 15 13 11 10 9 4 4 2 3 6 3 1 2 3 3 4 7 2 2 4 5 5 2 3 3 2 3 3 4 5 5 6 12 8 4 3 5 5 6 6 5 9
29 27 26 26 25 23 22 22 21 20 19 17 15 14 12 9 7 6 3 2 4 4 3 3 4 5 2 4 2 6 1 4 3 2 5 2 3 4 5 7 2 3 4 4 2 7 15 13 12 11 12 12 10 12
27 26 26 25 24 23 22 21 20 19 19 17 16 15 12 11 10 7 4 1 4 3 5 1 2 4 3 3 5 3 8 5 6 2 3 3 2 4 3 3 3 2 2 5 11 13 13 10 7 9 15 16 13 14
27 26 26 25 24 23 23 22 20 20 19 18 17 16 14 15 17 10 5 3 1 3 4 3 1 5 4 4 8 7 8 5 2 2 2 2 2 2 1 2 5 6 7 3 6 10 11 16 17 18 17 20 19 18
27 26 26 25 24 23 22 21 20 19 18 18 19 17 16 15 7 4 4 3 3 2 5 4 1 4 5 8 10 7 4 4 2 2 2 2 1 3 2 3 6 5 4 6 9 14 19 19 19 23 20 21 20 18
26 24 24 23 23 22 21 20 20 19 19 20 19 17 14 14 7 4 2 1 2 3 4 4 3 3 3 4 3 3 4 2 1 2 1 2 2 4 2 4 1 6 10 14 14 13 14 15 15 18 19 21 20 19
24 24 24 23 22 21 21 21 21 21 22 22 20 18 20 19 9 5 5 5 3 5 4 4 2 2 2 2 3 2 2 1 2 1 2 2 2 2 6 3 7 9 13 12 13 14 15 16 19 20 19 17 18 17
25 25 24 23 21 20 22 25 24 26 25 24 21 15 5 6 3 2 5 10 4 4 4 2 3 3 2 2 2 2 1 2 1 1 2 4 3 6 1 5 9 9 8 11 13 14 15 17 18 20 19 17 14 15
26 25 24 23 24 25 27 28 28 28 25 19 7 5 3 2 5 4 5 5 6 4 3 3 0 3 1 1 2 2 2 1 1 1 3 3 4 4 3 4 4 7 8 9 6 13 13 16 19 20 19 15 13 13
26 25 25 26 26 26 27 27 27 23 12 4 3 3 0 3 3 4 3 3 2 3 2 2 1 3 1 2 2 1 3 2 1 1 3 3 4 4 4 3 2 5 4 3 2 3 6 9 11 13 15 13 11 11
27 27 27 27 26 26 25 24 19 6 2 5 8 6 2 3 4 5 3 1 2 2 2 2 2 1 2 1 2 2 2 2 4 5 2 3 2 5 4 2 5 7 9 11 12 12 11 11 11 10 10 12 10 7
28 28 28 27 26 25 23 16 15 20 10 3 5 5 3 2 6 4 4 2 3 3 3 2 3 1 1 2 3 2 2 3 3 2 3 0 3 3 2 4 7 9 10 11 14 14 13 13 13 10 11 10 9 9
27 27 26 26 24 21 17 21 18 5 4 4 4 5 3 1 2 1 3 4 2 3 3 2 3 2 1 2 2 2 2 2 2 3 2 1 4 4 5 5 7 9 10 10 12 13 13 13 13 13 9 8 9 11
26 26 25 22 21 20 20 14 8 4 3 4 4 4 2 2 3 3 3 4 3 3 3 3 3 2 2 1 1 1 3 4 3 1 1 4 7 7 7 7 7 6 7 8 9 10 11 11 11 13 11 10 12 11
26 23 15 21 21 19 14 8 5 3 4 3 4 4 3 6 3 3 4 4 2 2 2 2 3 2 1 2 3 5 3 1 2 2 2 3 5 7 8 9 9 8 8 8 8 10 11 10 11 13 13 11 11 11
13 5 20 19 18 16 13 5 3 6 4 4 3 4 3 5 4 3 2 1 0 2 2 2 3 3 1 1 3 1 1 3 1 3 4 7 9 11 12 13 14 12 8 7 9 10 11 11 10 10 12 13 11 12
9 15 22 17 8 7 3 5 4 4 5 3 4 1 2 2 4 2 2 1 2 2 2 1 2 1 2 3 1 1 2 4 5 6 6 8 11 12 11 13 14 8 8 7 7 9 10 10 13 11 13 13 12 10
14 12 16 11 7 5 4 4 3 4 3 2 2 2 3 3 2 2 3 2 2 2 3 2 3 2 2 1 2 2 3 5 8 8 7 10 11 12 12 12 10 8 6 7 10 9 10 12 11 10 10 10 10 10
21 19 18 14 9 4 4 3 1 4 3 2 2 2 3 3 2 2 2 2 2 2 2 2 3 2 2 2 2 4 6 7 7 8 9 7 7 9 11 8 7 7 7 9 9 8 9 10 8 9 9 10 10 11
12 4 10 5 4 5 4 2 3 2 3 3 2 2 2 1 2 1 1 1 2 2 2 3 3 3 3 4 4 5 7 7 7 7 10 10 10 7 7 7 6 5 6 7 8 9 8 9 11 11 12 11 9 4
3 9 4 5 4 4 4 4 3 2 3 3 2 2 3 2 1 1 1 1 2 3 4 3 3 3 3 4 4 6 7 9 9 7 9 8 8 8 7 5 3 5 6 7 7 8 9 9 10 10 8 6 5 4
8 5 4 4 6 5 1 1 3 2 4 2 2 3 1 1 1 1 1 2 3 4 4 3 4 4 4 5 4 7 6 7 6 6 6 6 7 7 7 7 5 5 6 7 5 6 8 11 10 7 6 5 4 4
7 5 5 3 4 2 2 3 2 3 3 2 2 2 2 2 1 2 2 3 4 1 2 5 2 3 3 3 3 5 7 4 7 7 6 6 7 8 7 8 5 5 6 7 6 6 7 7 7 6 5 6 5 5
7 5 5 4 2 4 4 2 2 3 3 1 3 2 2 1 2 2 4 5 3 3 3 3 3 4 5 6 6 7 8 6 9 11 10 8 8 7 7 7 7 7 5 5 6 6 6 5 4 5 6 6 7 8
5 3 3 3 1 3 3 3 3 3 3 2 3 1 1 2 2 6 5 4 4 4 4 4 4 4 6 6 9 10 11 8 6 8 13 9 7 8 10 9 8 6 6 6 5 6 6 4 4 7 7 7 6 6
4 1 1 0 3 4 4 3 3 3 3 5 3 3 3 2 6 6 4 4 4 4 5 5 5 6 9 10 9 9 9 8 8 11 11 10 8 9 9 9 9 7 4 6 5 5 4 3 3 4 4 4 4 3
3 3 5 3 3 2 5 2 4 6 4 3 5 5 8 10 8 5 7 4 5 4 4 5 5 6 7 9 8 8 9 8 8 6 7 9 10 9 8 8 8 7 4 5 6 5 4 3 3 3 3 4 4 2
1 1 4 2 2 2 4 6 6 5 5 6 6 5 7 6 4 4 4 3 2 3 5 8 9 3 5 5 6 5 6 6 7 14 15 11 10 7 5 7 6 5 5 6 5 5 5 3 2 2 1 1 2 2
3 3 4 1 6 7 7 8 5 3 3 3 2 3 4 5 5 2 2 4 5 8 9 5 3 2 4 4 8 9 4 5 6 7 8 10 8 5 5 5 4 3 4 5 5 4 4 4 3 2 1 2 3 3
3 3 3 3 6 5 4 2 1 2 2 4 2 5 11 7 5 3 6 7 6 3 1 3 2 0 1 3 3 7 8 3 7 11 10 9 10 8 7 5 3 4 5 5 4 3 3 2 2 2 2 4 4 4
2 5 5 3 5 3 1 2 2 3 2 2 4 2 2 1 5 5 0 2 1 2 2 2 1 1 2 2 2 4 7 8 8 9 13 8 7 5 2 2 3 4 4 4 3 3 3 4 3 3 3 4 4 5
2 1 1 2 4 4 2 1 3 5 2 3 5 4 4 4 7 4 1 0 1 1 2 2 2 1 2 3 4 4 4 4 6 8 10 10 10 8 5 4 4 4 6 4 4 4 5 5 4 4 4 4 4 5
Wind_Direction
143 142 142 142 143 144 146 144 143 144 143 142 142 138 124 123 125 90 106 38 106 96 32 12 63 134 98 105 139 164 97 34 66 96 159 180 177 199 230 170 187 178 172 180 165 225 264 227 197 218 168 242 268 282
139 139 140 141 142 144 144 141 140 143 144 141 138 132 121 113 110 97 88 45 43 79 120 3 52 39 37 136 123 24 99 155 159 102 172 133 163 181 197 253 185 224 201 179 193 217 265 266 278 248 303 285 282 300
136 137 139 138 141 142 140 140 141 143 140 139 136 131 121 108 102 108 110 60 64 94 39 62 35 1 43 57 111 118 252 150 150 91 144 134 185 160 192 232 229 192 170 232 160 238 257 273 275 273 284 284 289 291
136 137 138 141 140 139 138 137 141 140 138 136 132 129 119 116 98 87 85 54 79 112 107 83 330 37 343 35 59 64 118 92 98 96 106 142 175 200 222 300 231 243 201 236 270 283 286 281 279 289 292 287 281 277
134 135 137 136 136 135 133 134 134 135 136 134 129 124 114 108 97 81 74 39 43 135 127 108 90 12 1 67 85 87 103 104 105 102 112 166 120 186 178 287 243 207 237 221 264 294 283 289 296 290 286 285 286 283
131 132 133 133 132 133 133 133 133 133 136 131 130 125 120 108 88 66 58 1 349 58 97 106 300 24 47 67 68 64 55 70 75 126 162 169 129 178 222 250 261 251 295 302 296 303 299 288 285 284 282 282 283 280
128 132 132 133 136 137 138 137 135 135 132 129 126 116 102 77 60 73 122 169 23 61 82 103 90 35 75 80 50 44 28 53 70 107 185 162 186 169 225 240 153 356 338 321 312 317 301 307 296 295 290 285 284 279
134 133 133 136 139 141 144 142 137 134 127 119 113 108 103 104 103 48 357 32 66 86 60 102 92 112 28 82 97 3 94 44 36 111 139 182 137 214 250 286 352 347 334 316 321 320 307 304 302 299 295 290 287 283
135 134 135 135 136 139 142 144 140 128 122 120 116 110 75 40 61 120 138 65 54 88 101 75 122 144 54 88 94 89 55 138 8 253 193 166 173 224 238 339 341 348 328 312 316 326 347 344 334 321 312 302 291 286
133 134 131 131 128 126 126 127 125 127 126 115 62 58 61 355 132 141 13 30 24 359 41 81 52 105 85 114 98 107 39 127 210 207 131 223 252 141 105 61 4 346 345 353 345 360 352 353 353 351 348 330 316 304
134 133 132 131 128 128 128 129 129 122 87 55 81 72 93 167 59 40 56 51 12 59 37 83 77 117 15 124 130 73 148 156 257 139 190 216 255 170 143 144 311 323 353 37 22 339 4 354 348 348 349 348 360 12
133 134 132 129 128 127 128 128 120 77 107 144 110 96 82 47 50 77 60 91 53 109 148 113 110 110 98 74 107 151 160 163 244 140 203 234 180 157 166 252 317 317 320 318 322 330 336 336 340 344 344 335 331 330
128 128 127 129 129 128 127 124 109 121 113 66 66 75 66 35 64 120 146 124 122 156 154 147 105 94 105 65 76 108 143 233 122 211 238 322 170 212 272 296 294 302 306 313 315 319 324 324 325 328 322 322 310 305
124 125 126 126 126 128 122 126 119 105 71 68 96 75 91 58 99 127 113 120 113 103 106 92 92 97 93 108 116 139 223 150 246 219 254 157 27 356 320 295 296 303 311 313 312 316 319 322 318 317 314 306 311 303
120 119 119 121 118 121 126 106 88 57 76 78 66 82 89 116 62 80 86 88 60 87 102 103 84 99 88 106 231 237 238 226 222 332 68 9 348 345 330 322 302 287 292 300 309 306 300 303 308 306 312 313 309 295
117 107 116 115 116 119 114 82 51 69 55 63 68 83 95 90 45 62 90 84 34 93 119 60 93 84 180 193 202 219 248 108 70 358 313 317 325 304 295 292 289 286 282 291 304 304 302 300 297 298 301 304 303 298
98 105 124 116 103 90 72 72 55 48 71 62 46 50 90 104 115 95 91 116 234 79 90 93 101 158 63 275 241 214 164 125 306 285 272 269 265 268 265 268 270 273 277 294 309 306 302 302 297 297 301 306 300 298
113 128 125 123 100 71 46 39 75 67 69 62 85 110 75 77 109 114 120 113 89 98 125 114 113 203 206 212 255 182 209 244 277 272 276 278 278 273 274 273 275 272 282 288 291 296 296 303 309 307 304 302 303 300
120 122 120 101 89 90 74 43 43 85 77 91 86 64 76 93 56 88 103 93 73 85 105 98 94 204 244 228 263 294 308 303 305 298 283 279 279 284 288 288 286 278 282 293 303 300 300 297 293 296 297 300 296 300
102 88 79 65 52 66 80 56 42 92 127 148 94 91 91 101 120 96 120 127 119 105 89 172 216 209 209 275 234 281 285 287 292 294 292 287 275 281 290 282 279 280 294 300 291 296 301 301 299 297 296 293 294 295
87 70 58 68 52 56 79 81 61 70 113 81 106 93 88 45 68 68 108 86 78 188 218 215 215 245 228 243 251 264 274 274 269 267 278 286 287 288 273 273 266 272 280 294 297 300 295 300 304 305 299 292 291 317
84 71 69 36 74 49 70 14 95 101 72 110 91 91 101 103 183 191 148 96 218 227 203 192 210 218 256 257 265 277 273 284 281 275 275 277 279 283 277 257 275 290 292 287 291 298 306 308 308 315 326 353 358 350
82 52 49 45 69 52 21 345 81 57 102 132 79 85 57 148 223 95 55 229 253 236 220 223 237 214 234 266 269 277 257 247 257 262 271 273 272 270 266 265 240 257 283 287 287 293 300 305 306 311 322 334 338 333
47 57 62 60 68 110 15 39 51 80 65 91 103 117 185 200 85 56 232 245 245 287 221 229 217 290 291 286 253 259 270 240 256 262 252 256 275 275 259 258 247 240 248 273 287 292 294 303 317 320 325 326 323 320
71 351 78 33 13 82 78 61 33 71 107 166 89 300 274 89 121 205 223 256 232 244 256 273 278 247 246 266 271 266 261 245 268 272 281 267 267 274 268 258 246 234 232 253 266 271 288 297 322 330 327 319 315 320
79 303 91 154 152 113 155 114 151 145 114 106 211 4 38 100 113 243 227 228 222 216 224 220 230 263 264 242 269 277 286 281 245 264 279 280 251 263 265 265 270 275 202 215 230 266 286 307 325 330 321 323 320 318
102 240 120 235 103 109 77 56 110 106 140 177 197 136 105 167 240 246 259 220 218 217 214 220 208 232 263 281 277 272 277 278 254 267 282 282 271 259 251 254 239 242 178 187 214 230 254 282 305 317 311 315 311 320
158 156 145 188 81 72 121 109 154 193 211 180 114 177 187 198 226 225 214 228 219 240 244 249 234 242 260 268 272 283 290 293 291 289 276 265 252 251 234 235 245 207 182 200 201 183 191 215 253 277 284 304 315 334
131 147 105 81 82 107 192 179 205 219 184 158 174 212 228 220 232 229 248 218 244 235 263 283 286 250 263 269 269 271 279 287 292 293 294 292 300 290 220 234 233 200 192 179 188 172 180 175 202 236 309 348 27 348
233 136 99 134 159 214 224 187 215 216 204 193 222 313 275 267 251 207 246 267 262 263 263 263 268 277 290 316 311 312 305 262 242 256 281 293 297 312 312 285 253 196 169 168 160 133 89 98 116 105 93 58 27 352
130 107 88 171 226 236 219 243 141 186 211 227 229 223 257 286 298 250 235 253 264 271 240 262 270 236 301 313 310 312 312 348 353 323 301 287 282 283 282 285 255 172 160 156 150 138 124 102 89 92 68 48 34 9
123 174 158 212 269 278 9 183 236 221 260 243 251 188 294 290 257 272 252 141 107 248 226 160 173 290 223 287 281 263 270 292 307 317 319 308 301 311 341 68 108 109 110 110 112 111 100 109 101 73 64 48 28 14
76 48 63 313 324 326 310 85 13 320 303 261 250 212 212 199 244 265 20 353 217 215 196 207 223 257 278 274 281 297 288 299 318 343 357 17 22 24 42 49 63 86 100 103 99 101 104 103 90 85 74 53 35 17